YUZGU 11 (RS5S) (53310 NORAD) Tracking and Keplerian Element Data

This shows tracking and keplerian element data for the satellite.

Feedback or suggestion? Click here.




ElementValue
Catalog53310
NameYUZGU 11 (RS5S)
Epoch Orbit2764
Epoch Day14.23452995
Epoch Year2023
RAAN355.5832
Inclination51.6319
Eccentricity0.0005448
Argument of Perigee79.8683
Mean Anonmoly280.2937
Mean Motion15.88904666
Decay Rate0.0069215
L11 53310U 98067TV 23014.23452995 .00692150 00000+0 22014-2 0 9994
L22 53310 51.6319 355.5832 0005448 79.8683 280.2937 15.88904666 27645



Live tracking and technical data element details for YUZGU 11 (RS5S) (NORAD 53310). YUZGU 11 (RS5S) can be tracked NOW for your location showing map with azimuth and elevation plus other details from your city location.







IsCatalogInMostPopularTable: catalog: 53310, numindb: 38
Update: records affected: 1



GetName: 53310 YUZGU 11 (RS5S)

Hit Count: updated at: Thu, 23 Jan 2025 16:20:37 GMT